Location: Pian di Sc�
(43.6333°N, 11.5500°E)
Time: 14:26:17
(UTC+00:00)

Cosmos 2180 Rocket - Pass Details

Date: 07 August 2020
Orbit: 954 x 1004 km, 82.9° (Epoch: 24 September)

Event Time Altitude Azimuth Distance (km) Brightness Sun altitude
Exits shadow 01:36:41 42° 191° (S) 1,348 4.8 -22.3°
Maximum altitude 01:38:59 86° 276° (W) 967 4.4 -22.1°
Drops below altitude 10° 01:45:09 10° 7° (N) 2,694 7.6 -21.4°
Sets 01:47:39 0° 8° (N) 3,643 8.5 -21.1°
